Year,Month,Day,Hour,Minute,Value (Times are PST for temperature in C)
2006,08,13,00,00,13.50
2006,08,13,00,01,13.50
2006,08,13,00,02,13.50
2006,08,13,00,03,13.50
2006,08,13,00,04,13.60
2006,08,13,00,05,13.60
2006,08,13,00,06,13.60
2006,08,13,00,07,13.60
2006,08,13,00,08,13.60
2006,08,13,00,09,13.60
2006,08,13,00,10,13.60
2006,08,13,00,11,13.70
2006,08,13,00,12,13.70
2006,08,13,00,13,13.70
2006,08,13,00,14,13.70
2006,08,13,00,15,13.70
2006,08,13,00,16,13.70
2006,08,13,00,17,13.70
2006,08,13,00,18,13.70
2006,08,13,00,19,13.80
2006,08,13,00,20,13.80
2006,08,13,00,21,13.80
2006,08,13,00,22,13.90
2006,08,13,00,23,13.90
2006,08,13,00,24,13.90
2006,08,13,00,25,14.00
2006,08,13,00,26,14.00
2006,08,13,00,27,14.00
2006,08,13,00,28,14.10
2006,08,13,00,29,14.10
2006,08,13,00,30,14.20
2006,08,13,00,31,14.20
2006,08,13,00,32,14.20
2006,08,13,00,33,14.20
2006,08,13,00,34,14.20
2006,08,13,00,35,14.20
2006,08,13,00,36,14.20
2006,08,13,00,37,14.30
2006,08,13,00,38,14.30
2006,08,13,00,39,14.30
2006,08,13,00,40,14.40
2006,08,13,00,41,14.40
2006,08,13,00,42,14.40
2006,08,13,00,43,14.40
2006,08,13,00,44,14.40
2006,08,13,00,45,14.40
2006,08,13,00,46,14.40
2006,08,13,00,47,14.40
2006,08,13,00,48,14.40
2006,08,13,00,49,14.40
2006,08,13,00,50,14.40
2006,08,13,00,51,14.30
2006,08,13,00,52,14.30
2006,08,13,00,53,14.30
2006,08,13,00,54,14.30
2006,08,13,00,55,14.30
2006,08,13,00,56,14.30
2006,08,13,00,57,14.30
2006,08,13,00,58,14.30
2006,08,13,00,59,14.30
2006,08,13,01,00,14.30
2006,08,13,01,01,14.20
2006,08,13,01,02,14.20
2006,08,13,01,03,14.20
2006,08,13,01,04,14.20
2006,08,13,01,05,14.20
2006,08,13,01,06,14.20
2006,08,13,01,07,14.20
2006,08,13,01,08,14.20
2006,08,13,01,09,14.20
2006,08,13,01,10,14.20
2006,08,13,01,11,14.20
2006,08,13,01,12,14.20
2006,08,13,01,13,14.20
2006,08,13,01,14,14.20
2006,08,13,01,15,14.20
2006,08,13,01,16,14.20
2006,08,13,01,17,14.20
2006,08,13,01,18,14.20
2006,08,13,01,19,14.20
2006,08,13,01,20,14.20
2006,08,13,01,21,14.20
2006,08,13,01,22,14.20
2006,08,13,01,23,14.20
2006,08,13,01,24,14.20
2006,08,13,01,25,14.20
2006,08,13,01,26,14.20
2006,08,13,01,27,14.20
2006,08,13,01,28,14.20
2006,08,13,01,29,14.20
2006,08,13,01,30,14.20
2006,08,13,01,31,14.20
2006,08,13,01,32,14.20
2006,08,13,01,33,14.20
2006,08,13,01,34,14.20
2006,08,13,01,35,14.20
2006,08,13,01,36,14.20
2006,08,13,01,37,14.20
2006,08,13,01,38,14.20
2006,08,13,01,39,14.20
2006,08,13,01,40,14.20
2006,08,13,01,41,14.20
2006,08,13,01,42,14.20
2006,08,13,01,43,14.20
2006,08,13,01,44,14.20
2006,08,13,01,45,14.10
2006,08,13,01,46,14.10
2006,08,13,01,47,14.10
2006,08,13,01,48,14.10
2006,08,13,01,49,14.10
2006,08,13,01,50,14.10
2006,08,13,01,51,14.10
2006,08,13,01,52,14.10
2006,08,13,01,53,14.10
2006,08,13,01,54,14.10
2006,08,13,01,55,14.10
2006,08,13,01,56,14.10
2006,08,13,01,57,14.10
2006,08,13,01,58,14.20
2006,08,13,01,59,14.20
2006,08,13,02,00,14.20
2006,08,13,02,01,14.20
2006,08,13,02,02,14.20
2006,08,13,02,03,14.20
2006,08,13,02,04,14.20
2006,08,13,02,05,14.20
2006,08,13,02,06,14.30
2006,08,13,02,07,14.30
2006,08,13,02,08,14.30
2006,08,13,02,09,14.30
2006,08,13,02,10,14.30
2006,08,13,02,11,14.30
2006,08,13,02,12,14.20
2006,08,13,02,13,14.20
2006,08,13,02,14,14.20
2006,08,13,02,15,14.20
2006,08,13,02,16,14.20
2006,08,13,02,17,14.10
2006,08,13,02,18,14.10
2006,08,13,02,19,14.10
2006,08,13,02,20,14.10
2006,08,13,02,21,14.00
2006,08,13,02,22,14.00
2006,08,13,02,23,14.00
2006,08,13,02,24,14.00
2006,08,13,02,25,14.00
2006,08,13,02,26,13.90
2006,08,13,02,27,13.90
2006,08,13,02,28,13.90
2006,08,13,02,29,13.90
2006,08,13,02,30,13.80
2006,08,13,02,31,13.80
2006,08,13,02,32,13.80
2006,08,13,02,33,13.80
2006,08,13,02,34,13.80
2006,08,13,02,35,13.70
2006,08,13,02,36,13.70
2006,08,13,02,37,13.70
2006,08,13,02,38,13.70
2006,08,13,02,39,13.70
2006,08,13,02,40,13.70
2006,08,13,02,41,13.70
2006,08,13,02,42,13.70
2006,08,13,02,43,13.70
2006,08,13,02,44,13.70
2006,08,13,02,45,13.70
2006,08,13,02,46,13.70
2006,08,13,02,47,13.70
2006,08,13,02,48,13.70
2006,08,13,02,49,13.70
2006,08,13,02,50,13.70
2006,08,13,02,51,13.70
2006,08,13,02,52,13.70
2006,08,13,02,53,13.70
2006,08,13,02,54,13.70
2006,08,13,02,55,13.70
2006,08,13,02,56,13.70
2006,08,13,02,57,13.60
2006,08,13,02,58,13.60
2006,08,13,02,59,13.50
2006,08,13,03,00,13.40
2006,08,13,03,01,13.30
2006,08,13,03,02,13.30
2006,08,13,03,03,13.30
2006,08,13,03,04,13.20
2006,08,13,03,05,13.20
2006,08,13,03,06,13.20
2006,08,13,03,07,13.20
2006,08,13,03,08,13.20
2006,08,13,03,09,13.10
2006,08,13,03,10,13.10
2006,08,13,03,11,13.10
2006,08,13,03,12,13.10
2006,08,13,03,13,13.10
2006,08,13,03,14,13.10
2006,08,13,03,15,13.10
2006,08,13,03,16,13.10
2006,08,13,03,17,13.10
2006,08,13,03,18,13.10
2006,08,13,03,19,13.10
2006,08,13,03,20,13.10
2006,08,13,03,21,13.00
2006,08,13,03,22,13.00
2006,08,13,03,23,13.00
2006,08,13,03,24,13.00
2006,08,13,03,25,13.00
2006,08,13,03,26,13.00
2006,08,13,03,27,13.00
2006,08,13,03,28,13.00
2006,08,13,03,29,12.90
2006,08,13,03,30,12.90
2006,08,13,03,31,12.90
2006,08,13,03,32,12.80
2006,08,13,03,33,12.80
2006,08,13,03,34,12.80
2006,08,13,03,35,12.80
2006,08,13,03,36,12.80
2006,08,13,03,37,12.80
2006,08,13,03,38,12.80
2006,08,13,03,39,12.70
2006,08,13,03,40,12.70
2006,08,13,03,41,12.70
2006,08,13,03,42,12.70
2006,08,13,03,43,12.70
2006,08,13,03,44,12.60
2006,08,13,03,45,12.60
2006,08,13,03,46,12.60
2006,08,13,03,47,12.60
2006,08,13,03,48,12.60
2006,08,13,03,49,12.60
2006,08,13,03,50,12.60
2006,08,13,03,51,12.60
2006,08,13,03,52,12.50
2006,08,13,03,53,12.50
2006,08,13,03,54,12.50
2006,08,13,03,55,12.50
2006,08,13,03,56,12.50
2006,08,13,03,57,12.40
2006,08,13,03,58,12.30
2006,08,13,03,59,12.30
2006,08,13,04,00,12.20
2006,08,13,04,01,12.20
2006,08,13,04,02,12.20
2006,08,13,04,03,12.10
2006,08,13,04,04,12.10
2006,08,13,04,05,12.10
2006,08,13,04,06,12.10
2006,08,13,04,07,12.10
2006,08,13,04,08,12.10
2006,08,13,04,09,12.10
2006,08,13,04,10,12.10
2006,08,13,04,11,12.10
2006,08,13,04,12,12.10
2006,08,13,04,13,12.10
2006,08,13,04,14,12.10
2006,08,13,04,15,12.10
2006,08,13,04,16,12.10
2006,08,13,04,17,12.10
2006,08,13,04,18,12.00
2006,08,13,04,19,12.00
2006,08,13,04,20,12.00
2006,08,13,04,21,12.00
2006,08,13,04,22,12.00
2006,08,13,04,23,12.00
2006,08,13,04,24,11.90
2006,08,13,04,25,11.90
2006,08,13,04,26,11.90
2006,08,13,04,27,11.90
2006,08,13,04,28,11.90
2006,08,13,04,29,11.90
2006,08,13,04,30,11.90
2006,08,13,04,31,11.90
2006,08,13,04,32,11.90
2006,08,13,04,33,11.90
2006,08,13,04,34,11.90
2006,08,13,04,35,11.90
2006,08,13,04,36,11.90
2006,08,13,04,37,11.90
2006,08,13,04,38,11.80
2006,08,13,04,39,11.80
2006,08,13,04,40,11.80
2006,08,13,04,41,11.80
2006,08,13,04,42,11.80
2006,08,13,04,43,11.80
2006,08,13,04,44,11.80
2006,08,13,04,45,11.70
2006,08,13,04,46,11.70
2006,08,13,04,47,11.70
2006,08,13,04,48,11.70
2006,08,13,04,49,11.60
2006,08,13,04,50,11.60
2006,08,13,04,51,11.60
2006,08,13,04,52,11.60
2006,08,13,04,53,11.60
2006,08,13,04,54,11.60
2006,08,13,04,55,11.60
2006,08,13,04,56,11.60
2006,08,13,04,57,11.60
2006,08,13,04,58,11.60
2006,08,13,04,59,11.60
2006,08,13,05,00,11.60
2006,08,13,05,01,11.60
2006,08,13,05,02,11.60
2006,08,13,05,03,11.70
2006,08,13,05,04,11.70
2006,08,13,05,05,11.70
2006,08,13,05,06,11.70
2006,08,13,05,07,11.70
2006,08,13,05,08,11.70
2006,08,13,05,09,11.70
2006,08,13,05,10,11.70
2006,08,13,05,11,11.70
2006,08,13,05,12,11.70
2006,08,13,05,13,11.80
2006,08,13,05,14,11.80
2006,08,13,05,15,11.80
2006,08,13,05,16,11.80
2006,08,13,05,17,11.70
2006,08,13,05,18,11.70
2006,08,13,05,19,11.70
2006,08,13,05,20,11.70
2006,08,13,05,21,11.70
2006,08,13,05,22,11.70
2006,08,13,05,23,11.70
2006,08,13,05,24,11.70
2006,08,13,05,25,11.70
2006,08,13,05,26,11.70
2006,08,13,05,27,11.70
2006,08,13,05,28,11.70
2006,08,13,05,29,11.70
2006,08,13,05,30,11.80
2006,08,13,05,31,11.80
2006,08,13,05,32,11.80
2006,08,13,05,33,11.80
2006,08,13,05,34,11.80
2006,08,13,05,35,11.80
2006,08,13,05,36,11.80
2006,08,13,05,37,11.80
2006,08,13,05,38,11.80
2006,08,13,05,39,11.80
2006,08,13,05,40,11.80
2006,08,13,05,41,11.80
2006,08,13,05,42,11.80
2006,08,13,05,43,11.80
2006,08,13,05,44,11.80
2006,08,13,05,45,11.80
2006,08,13,05,46,11.80
2006,08,13,05,47,11.80
2006,08,13,05,48,11.80
2006,08,13,05,49,11.80
2006,08,13,05,50,11.80
2006,08,13,05,51,11.80
2006,08,13,05,52,11.80
2006,08,13,05,53,11.80
2006,08,13,05,54,11.80
2006,08,13,05,55,11.80
2006,08,13,05,56,11.80
2006,08,13,05,57,11.80
2006,08,13,05,58,11.80
2006,08,13,05,59,11.80
2006,08,13,06,00,11.80
2006,08,13,06,01,11.80
2006,08,13,06,02,11.80
2006,08,13,06,03,11.80
2006,08,13,06,04,11.80
2006,08,13,06,05,11.80
2006,08,13,06,06,11.80
2006,08,13,06,07,11.80
2006,08,13,06,08,11.80
2006,08,13,06,09,11.80
2006,08,13,06,10,11.80
2006,08,13,06,11,11.80
2006,08,13,06,12,11.70
2006,08,13,06,13,11.60
2006,08,13,06,14,11.60
2006,08,13,06,15,11.60
2006,08,13,06,16,11.60
2006,08,13,06,17,11.60
2006,08,13,06,18,11.60
2006,08,13,06,19,11.60
2006,08,13,06,20,11.60
2006,08,13,06,21,11.60
2006,08,13,06,22,11.60
2006,08,13,06,23,11.60
2006,08,13,06,24,11.60
2006,08,13,06,25,11.40
2006,08,13,06,26,11.30
2006,08,13,06,27,11.30
2006,08,13,06,28,11.20
2006,08,13,06,29,11.20
2006,08,13,06,30,11.20
2006,08,13,06,31,11.20
2006,08,13,06,32,11.20
2006,08,13,06,33,11.20
2006,08,13,06,34,11.20
2006,08,13,06,35,11.20
2006,08,13,06,36,11.20
2006,08,13,06,37,11.20
2006,08,13,06,38,11.10
2006,08,13,06,39,11.10
2006,08,13,06,40,11.20
2006,08,13,06,41,11.20
2006,08,13,06,42,11.20
2006,08,13,06,43,11.30
2006,08,13,06,44,11.30
2006,08,13,06,45,11.30
2006,08,13,06,46,11.30
2006,08,13,06,47,11.40
2006,08,13,06,48,11.40
2006,08,13,06,49,11.40
2006,08,13,06,50,11.40
2006,08,13,06,51,11.40
2006,08,13,06,52,11.40
2006,08,13,06,53,11.40
2006,08,13,06,54,11.40
2006,08,13,06,55,11.40
2006,08,13,06,56,11.40
2006,08,13,06,57,11.40
2006,08,13,06,58,11.50
2006,08,13,06,59,11.60
2006,08,13,07,00,11.60
2006,08,13,07,01,11.60
2006,08,13,07,02,11.70
2006,08,13,07,03,11.70
2006,08,13,07,04,11.70
2006,08,13,07,05,11.80
2006,08,13,07,06,11.80
2006,08,13,07,07,11.80
2006,08,13,07,08,11.90
2006,08,13,07,09,11.90
2006,08,13,07,10,12.00
2006,08,13,07,11,12.00
2006,08,13,07,12,12.10
2006,08,13,07,13,12.20
2006,08,13,07,14,12.20
2006,08,13,07,15,12.20
2006,08,13,07,16,12.30
2006,08,13,07,17,12.30
2006,08,13,07,18,12.30
2006,08,13,07,19,12.30
2006,08,13,07,20,12.40
2006,08,13,07,21,12.50
2006,08,13,07,22,12.50
2006,08,13,07,23,12.50
2006,08,13,07,24,12.60
2006,08,13,07,25,12.60
2006,08,13,07,26,12.60
2006,08,13,07,27,12.70
2006,08,13,07,28,12.70
2006,08,13,07,29,12.80
2006,08,13,07,30,12.80
2006,08,13,07,31,12.80
2006,08,13,07,32,12.80
2006,08,13,07,33,12.90
2006,08,13,07,34,13.00
2006,08,13,07,35,13.00
2006,08,13,07,36,13.10
2006,08,13,07,37,13.20
2006,08,13,07,38,13.30
2006,08,13,07,39,13.40
2006,08,13,07,40,13.50
2006,08,13,07,41,13.60
2006,08,13,07,42,13.70
2006,08,13,07,43,13.80
2006,08,13,07,44,13.90
2006,08,13,07,45,14.00
2006,08,13,07,46,14.10
2006,08,13,07,47,14.20
2006,08,13,07,48,14.20
2006,08,13,07,49,14.30
2006,08,13,07,50,14.40
2006,08,13,07,51,14.50
2006,08,13,07,52,14.50
2006,08,13,07,53,14.60
2006,08,13,07,54,14.60
2006,08,13,07,55,14.70
2006,08,13,07,56,14.70
2006,08,13,07,57,14.80
2006,08,13,07,58,14.80
2006,08,13,07,59,14.80
2006,08,13,08,00,14.80
2006,08,13,08,01,14.90
2006,08,13,08,02,14.90
2006,08,13,08,03,14.90
2006,08,13,08,04,14.90
2006,08,13,08,05,14.90
2006,08,13,08,06,14.90
2006,08,13,08,07,14.80
2006,08,13,08,08,14.80
2006,08,13,08,09,14.80
2006,08,13,08,10,14.80
2006,08,13,08,11,14.80
2006,08,13,08,12,14.80
2006,08,13,08,13,14.80
2006,08,13,08,14,14.80
2006,08,13,08,15,14.90
2006,08,13,08,16,15.00
2006,08,13,08,17,15.10
2006,08,13,08,18,15.20
2006,08,13,08,19,15.30
2006,08,13,08,20,15.40
2006,08,13,08,21,15.50
2006,08,13,08,22,15.60
2006,08,13,08,23,15.70
2006,08,13,08,24,15.80
2006,08,13,08,25,15.90
2006,08,13,08,26,16.00
2006,08,13,08,27,16.10
2006,08,13,08,28,16.10
2006,08,13,08,29,16.20
2006,08,13,08,30,16.30
2006,08,13,08,31,16.40
2006,08,13,08,32,16.40
2006,08,13,08,33,16.50
2006,08,13,08,34,16.60
2006,08,13,08,35,16.70
2006,08,13,08,36,16.70
2006,08,13,08,37,16.80
2006,08,13,08,38,16.80
2006,08,13,08,39,16.90
2006,08,13,08,40,16.90
2006,08,13,08,41,16.90
2006,08,13,08,42,16.90
2006,08,13,08,43,17.00
2006,08,13,08,44,17.00
2006,08,13,08,45,17.00
2006,08,13,08,46,17.00
2006,08,13,08,47,17.00
2006,08,13,08,48,17.00
2006,08,13,08,49,17.10
2006,08,13,08,50,17.10
2006,08,13,08,51,17.10
2006,08,13,08,52,17.20
2006,08,13,08,53,17.20
2006,08,13,08,54,17.20
2006,08,13,08,55,17.30
2006,08,13,08,56,17.30
2006,08,13,08,57,17.30
2006,08,13,08,58,17.30
2006,08,13,08,59,17.40
2006,08,13,09,00,17.50
2006,08,13,09,01,17.60
2006,08,13,09,02,17.70
2006,08,13,09,03,17.70
2006,08,13,09,04,17.80
2006,08,13,09,05,17.90
2006,08,13,09,06,17.90
2006,08,13,09,07,17.90
2006,08,13,09,08,18.00
2006,08,13,09,09,18.10
2006,08,13,09,10,18.20
2006,08,13,09,11,18.20
2006,08,13,09,12,18.30
2006,08,13,09,13,18.40
2006,08,13,09,14,18.40
2006,08,13,09,15,18.40
2006,08,13,09,16,18.40
2006,08,13,09,17,18.40
2006,08,13,09,18,18.40
2006,08,13,09,19,18.50
2006,08,13,09,20,18.50
2006,08,13,09,21,18.50
2006,08,13,09,22,18.50
2006,08,13,09,23,18.60
2006,08,13,09,24,18.60
2006,08,13,09,25,18.70
2006,08,13,09,26,18.70
2006,08,13,09,27,18.70
2006,08,13,09,28,18.60
2006,08,13,09,29,18.60
2006,08,13,09,30,18.60
2006,08,13,09,31,18.60
2006,08,13,09,32,18.60
2006,08,13,09,33,18.70
2006,08,13,09,34,18.80
2006,08,13,09,35,18.90
2006,08,13,09,36,18.90
2006,08,13,09,37,19.00
2006,08,13,09,38,19.00
2006,08,13,09,39,18.90
2006,08,13,09,40,18.90
2006,08,13,09,41,18.90
2006,08,13,09,42,18.90
2006,08,13,09,43,19.00
2006,08,13,09,44,19.10
2006,08,13,09,45,19.10
2006,08,13,09,46,19.10
2006,08,13,09,47,19.10
2006,08,13,09,48,19.10
2006,08,13,09,49,19.10
2006,08,13,09,50,19.10
2006,08,13,09,51,19.10
2006,08,13,09,52,19.10
2006,08,13,09,53,19.10
2006,08,13,09,54,19.10
2006,08,13,09,55,19.10
2006,08,13,09,56,19.10
2006,08,13,09,57,19.00
2006,08,13,09,58,18.90
2006,08,13,09,59,18.90
2006,08,13,10,00,18.90
2006,08,13,10,01,18.90
2006,08,13,10,02,19.10
2006,08,13,10,03,19.00
2006,08,13,10,04,19.00
2006,08,13,10,05,19.10
2006,08,13,10,06,19.10
2006,08,13,10,07,19.10
2006,08,13,10,08,19.10
2006,08,13,10,09,19.20
2006,08,13,10,10,19.10
2006,08,13,10,11,19.10
2006,08,13,10,12,19.10
2006,08,13,10,13,19.10
2006,08,13,10,14,19.10
2006,08,13,10,15,19.10
2006,08,13,10,16,19.10
2006,08,13,10,17,19.10
2006,08,13,10,18,19.10
2006,08,13,10,19,19.10
2006,08,13,10,20,19.10
2006,08,13,10,21,19.10
2006,08,13,10,22,19.10
2006,08,13,10,23,19.20
2006,08,13,10,24,19.30
2006,08,13,10,25,19.30
2006,08,13,10,26,19.40
2006,08,13,10,27,19.50
2006,08,13,10,28,19.50
2006,08,13,10,29,19.50
2006,08,13,10,30,19.60
2006,08,13,10,31,19.60
2006,08,13,10,32,19.60
2006,08,13,10,33,19.60
2006,08,13,10,34,19.60
2006,08,13,10,35,19.60
2006,08,13,10,36,19.50
2006,08,13,10,37,19.50
2006,08,13,10,38,19.60
2006,08,13,10,39,19.60
2006,08,13,10,40,19.70
2006,08,13,10,41,19.70
2006,08,13,10,42,19.70
2006,08,13,10,43,19.60
2006,08,13,10,44,19.60
2006,08,13,10,45,19.60
2006,08,13,10,46,19.60
2006,08,13,10,47,19.60
2006,08,13,10,48,19.60
2006,08,13,10,49,19.50
2006,08,13,10,50,19.50
2006,08,13,10,51,19.60
2006,08,13,10,52,19.70
2006,08,13,10,53,19.70
2006,08,13,10,54,19.70
2006,08,13,10,55,19.60
2006,08,13,10,56,19.70
2006,08,13,10,57,19.60
2006,08,13,10,58,19.60
2006,08,13,10,59,19.60
2006,08,13,11,00,19.60
2006,08,13,11,01,19.60
2006,08,13,11,02,19.60
2006,08,13,11,03,19.60
2006,08,13,11,04,19.60
2006,08,13,11,05,19.70
2006,08,13,11,06,19.70
2006,08,13,11,07,19.60
2006,08,13,11,08,19.60
2006,08,13,11,09,19.50
2006,08,13,11,10,19.40
2006,08,13,11,11,19.40
2006,08,13,11,12,19.50
2006,08,13,11,13,19.60
2006,08,13,11,14,19.60
2006,08,13,11,15,19.70
2006,08,13,11,16,19.80
2006,08,13,11,17,19.90
2006,08,13,11,18,20.10
2006,08,13,11,19,20.20
2006,08,13,11,20,20.20
2006,08,13,11,21,20.20
2006,08,13,11,22,20.20
2006,08,13,11,23,20.00
2006,08,13,11,24,19.90
2006,08,13,11,25,19.90
2006,08,13,11,26,19.90
2006,08,13,11,27,19.90
2006,08,13,11,28,19.90
2006,08,13,11,29,19.90
2006,08,13,11,30,19.90
2006,08,13,11,31,19.90
2006,08,13,11,32,19.90
2006,08,13,11,33,19.90
2006,08,13,11,34,20.10
2006,08,13,11,35,20.20
2006,08,13,11,36,20.20
2006,08,13,11,37,20.20
2006,08,13,11,38,20.20
2006,08,13,11,39,20.20
2006,08,13,11,40,20.20
2006,08,13,11,41,20.30
2006,08,13,11,42,20.40
2006,08,13,11,43,20.50
2006,08,13,11,44,20.50
2006,08,13,11,45,20.50
2006,08,13,11,46,20.60
2006,08,13,11,47,20.60
2006,08,13,11,48,20.60
2006,08,13,11,49,20.50
2006,08,13,11,50,20.50
2006,08,13,11,51,20.40
2006,08,13,11,52,20.50
2006,08,13,11,53,20.50
2006,08,13,11,54,20.70
2006,08,13,11,55,20.60
2006,08,13,11,56,20.60
2006,08,13,11,57,20.50
2006,08,13,11,58,20.50
2006,08,13,11,59,20.40
2006,08,13,12,00,20.50
2006,08,13,12,01,20.50
2006,08,13,12,02,20.50
2006,08,13,12,03,20.60
2006,08,13,12,04,20.60
2006,08,13,12,05,20.60
2006,08,13,12,06,20.60
2006,08,13,12,07,20.60
2006,08,13,12,08,20.60
2006,08,13,12,09,20.60
2006,08,13,12,10,20.70
2006,08,13,12,11,20.80
2006,08,13,12,12,20.80
2006,08,13,12,13,20.70
2006,08,13,12,14,20.70
2006,08,13,12,15,20.70
2006,08,13,12,16,20.80
2006,08,13,12,17,20.90
2006,08,13,12,18,21.00
2006,08,13,12,19,21.10
2006,08,13,12,20,21.10
2006,08,13,12,21,21.10
2006,08,13,12,22,21.10
2006,08,13,12,23,21.20
2006,08,13,12,24,21.30
2006,08,13,12,25,21.50
2006,08,13,12,26,21.60
2006,08,13,12,27,21.60
2006,08,13,12,28,21.70
2006,08,13,12,29,21.70
2006,08,13,12,30,21.70
2006,08,13,12,31,21.70
2006,08,13,12,32,21.50
2006,08,13,12,33,21.40
2006,08,13,12,34,21.50
2006,08,13,12,35,21.60
2006,08,13,12,36,21.60
2006,08,13,12,37,21.60
2006,08,13,12,38,21.70
2006,08,13,12,39,21.70
2006,08,13,12,40,21.60
2006,08,13,12,41,21.60
2006,08,13,12,42,21.60
2006,08,13,12,43,21.60
2006,08,13,12,44,21.60
2006,08,13,12,45,21.60
2006,08,13,12,46,21.60
2006,08,13,12,47,21.60
2006,08,13,12,48,21.50
2006,08,13,12,49,21.40
2006,08,13,12,50,21.40
2006,08,13,12,51,21.40
2006,08,13,12,52,21.50
2006,08,13,12,53,21.50
2006,08,13,12,54,21.60
2006,08,13,12,55,21.60
2006,08,13,12,56,21.60
2006,08,13,12,57,21.60
2006,08,13,12,58,21.60
2006,08,13,12,59,21.60
2006,08,13,13,00,21.70
2006,08,13,13,01,21.80
2006,08,13,13,02,21.90
2006,08,13,13,03,22.10
2006,08,13,13,04,22.20
2006,08,13,13,05,22.30
2006,08,13,13,06,22.40
2006,08,13,13,07,22.50
2006,08,13,13,08,22.30
2006,08,13,13,09,22.30
2006,08,13,13,10,22.20
2006,08,13,13,11,22.20
2006,08,13,13,12,22.20
2006,08,13,13,13,22.20
2006,08,13,13,14,22.20
2006,08,13,13,15,22.20
2006,08,13,13,16,22.10
2006,08,13,13,17,22.20
2006,08,13,13,18,22.20
2006,08,13,13,19,22.30
2006,08,13,13,20,22.30
2006,08,13,13,21,22.30
2006,08,13,13,22,22.20
2006,08,13,13,23,22.20
2006,08,13,13,24,22.20
2006,08,13,13,25,22.20
2006,08,13,13,26,22.20
2006,08,13,13,27,22.10
2006,08,13,13,28,22.10
2006,08,13,13,29,22.00
2006,08,13,13,30,22.00
2006,08,13,13,31,22.00
2006,08,13,13,32,22.00
2006,08,13,13,33,22.10
2006,08,13,13,34,22.10
2006,08,13,13,35,22.20
2006,08,13,13,36,22.30
2006,08,13,13,37,22.30
2006,08,13,13,38,22.40
2006,08,13,13,39,22.30
2006,08,13,13,40,22.40
2006,08,13,13,41,22.50
2006,08,13,13,42,22.60
2006,08,13,13,43,22.70
2006,08,13,13,44,22.70
2006,08,13,13,45,22.70
2006,08,13,13,46,22.60
2006,08,13,13,47,22.70
2006,08,13,13,48,22.70
2006,08,13,13,49,22.80
2006,08,13,13,50,22.70
2006,08,13,13,51,22.70
2006,08,13,13,52,22.80
2006,08,13,13,53,22.80
2006,08,13,13,54,22.80
2006,08,13,13,55,22.90
2006,08,13,13,56,23.00
2006,08,13,13,57,23.20
2006,08,13,13,58,23.30
2006,08,13,13,59,23.40
2006,08,13,14,00,23.40
2006,08,13,14,01,23.40
2006,08,13,14,02,23.40
2006,08,13,14,03,23.50
2006,08,13,14,04,23.60
2006,08,13,14,05,23.70
2006,08,13,14,06,23.60
2006,08,13,14,07,23.60
2006,08,13,14,08,23.60
2006,08,13,14,09,23.70
2006,08,13,14,10,23.50
2006,08,13,14,11,23.40
2006,08,13,14,12,23.30
2006,08,13,14,13,23.20
2006,08,13,14,14,23.10
2006,08,13,14,15,23.10
2006,08,13,14,16,23.10
2006,08,13,14,17,23.20
2006,08,13,14,18,23.40
2006,08,13,14,19,23.60
2006,08,13,14,20,23.70
2006,08,13,14,21,23.70
2006,08,13,14,22,23.60
2006,08,13,14,23,23.50
2006,08,13,14,24,23.40
2006,08,13,14,25,23.50
2006,08,13,14,26,23.50
2006,08,13,14,27,23.50
2006,08,13,14,28,23.60
2006,08,13,14,29,23.60
2006,08,13,14,30,23.60
2006,08,13,14,31,23.60
2006,08,13,14,32,23.70
2006,08,13,14,33,23.70
2006,08,13,14,34,23.70
2006,08,13,14,35,23.80
2006,08,13,14,36,23.80
2006,08,13,14,37,23.70
2006,08,13,14,38,23.70
2006,08,13,14,39,23.60
2006,08,13,14,40,23.40
2006,08,13,14,41,23.30
2006,08,13,14,42,23.40
2006,08,13,14,43,23.50
2006,08,13,14,44,23.60
2006,08,13,14,45,23.60
2006,08,13,14,46,23.60
2006,08,13,14,47,23.50
2006,08,13,14,48,23.40
2006,08,13,14,49,23.40
2006,08,13,14,50,23.40
2006,08,13,14,51,23.50
2006,08,13,14,52,23.60
2006,08,13,14,53,23.60
2006,08,13,14,54,23.60
2006,08,13,14,55,23.70
2006,08,13,14,56,23.70
2006,08,13,14,57,23.90
2006,08,13,14,58,24.00
2006,08,13,14,59,24.10
2006,08,13,15,00,24.10
2006,08,13,15,01,24.10
2006,08,13,15,02,24.10
2006,08,13,15,03,24.10
2006,08,13,15,04,24.10
2006,08,13,15,05,23.90
2006,08,13,15,06,23.80
2006,08,13,15,07,23.70
2006,08,13,15,08,23.60
2006,08,13,15,09,23.40
2006,08,13,15,10,23.40
2006,08,13,15,11,23.60
2006,08,13,15,12,23.70
2006,08,13,15,13,23.70
2006,08,13,15,14,23.80
2006,08,13,15,15,24.00
2006,08,13,15,16,24.10
2006,08,13,15,17,24.10
2006,08,13,15,18,24.10
2006,08,13,15,19,24.10
2006,08,13,15,20,23.90
2006,08,13,15,21,23.80
2006,08,13,15,22,23.80
2006,08,13,15,23,23.70
2006,08,13,15,24,23.70
2006,08,13,15,25,23.70
2006,08,13,15,26,23.70
2006,08,13,15,27,23.80
2006,08,13,15,28,23.90
2006,08,13,15,29,23.90
2006,08,13,15,30,24.00
2006,08,13,15,31,24.20
2006,08,13,15,32,24.20
2006,08,13,15,33,24.20
2006,08,13,15,34,24.10
2006,08,13,15,35,24.00
2006,08,13,15,36,24.00
2006,08,13,15,37,24.10
2006,08,13,15,38,24.10
2006,08,13,15,39,24.00
2006,08,13,15,40,23.90
2006,08,13,15,41,23.90
2006,08,13,15,42,24.00
2006,08,13,15,43,24.10
2006,08,13,15,44,24.20
2006,08,13,15,45,24.20
2006,08,13,15,46,24.20
2006,08,13,15,47,24.10
2006,08,13,15,48,24.10
2006,08,13,15,49,24.10
2006,08,13,15,50,24.10
2006,08,13,15,51,24.10
2006,08,13,15,52,24.10
2006,08,13,15,53,24.10
2006,08,13,15,54,24.10
2006,08,13,15,55,24.10
2006,08,13,15,56,24.10
2006,08,13,15,57,24.00
2006,08,13,15,58,23.70
2006,08,13,15,59,23.40
2006,08,13,16,00,23.10
2006,08,13,16,01,22.80
2006,08,13,16,02,22.50
2006,08,13,16,03,22.30
2006,08,13,16,04,22.10
2006,08,13,16,05,21.80
2006,08,13,16,06,21.50
2006,08,13,16,07,21.30
2006,08,13,16,08,21.20
2006,08,13,16,09,21.10
2006,08,13,16,10,21.10
2006,08,13,16,11,21.10
2006,08,13,16,12,21.20
2006,08,13,16,13,21.30
2006,08,13,16,14,21.30
2006,08,13,16,15,21.30
2006,08,13,16,16,21.10
2006,08,13,16,17,21.00
2006,08,13,16,18,21.00
2006,08,13,16,19,20.80
2006,08,13,16,20,20.80
2006,08,13,16,21,20.90
2006,08,13,16,22,20.80
2006,08,13,16,23,20.80
2006,08,13,16,24,20.80
2006,08,13,16,25,20.80
2006,08,13,16,26,20.70
2006,08,13,16,27,20.60
2006,08,13,16,28,20.60
2006,08,13,16,29,20.60
2006,08,13,16,30,20.60
2006,08,13,16,31,20.50
2006,08,13,16,32,20.40
2006,08,13,16,33,20.40
2006,08,13,16,34,20.40
2006,08,13,16,35,20.40
2006,08,13,16,36,20.50
2006,08,13,16,37,20.60
2006,08,13,16,38,20.60
2006,08,13,16,39,20.60
2006,08,13,16,40,20.60
2006,08,13,16,41,20.60
2006,08,13,16,42,20.60
2006,08,13,16,43,20.70
2006,08,13,16,44,20.70
2006,08,13,16,45,20.70
2006,08,13,16,46,20.70
2006,08,13,16,47,20.70
2006,08,13,16,48,20.80
2006,08,13,16,49,20.80
2006,08,13,16,50,20.70
2006,08,13,16,51,20.50
2006,08,13,16,52,20.50
2006,08,13,16,53,20.40
2006,08,13,16,54,20.40
2006,08,13,16,55,20.40
2006,08,13,16,56,20.40
2006,08,13,16,57,20.40
2006,08,13,16,58,20.40
2006,08,13,16,59,20.40
2006,08,13,17,00,20.50
2006,08,13,17,01,20.60
2006,08,13,17,02,20.60
2006,08,13,17,03,20.70
2006,08,13,17,04,20.80
2006,08,13,17,05,20.90
2006,08,13,17,06,21.00
2006,08,13,17,07,20.90
2006,08,13,17,08,20.90
2006,08,13,17,09,20.80
2006,08,13,17,10,20.70
2006,08,13,17,11,20.70
2006,08,13,17,12,20.60
2006,08,13,17,13,20.50
2006,08,13,17,14,20.40
2006,08,13,17,15,20.30
2006,08,13,17,16,20.30
2006,08,13,17,17,20.20
2006,08,13,17,18,20.30
2006,08,13,17,19,20.30